This is the latest recevied weather packets stored in our database for station/object DB0WUN-13. If no packets are shown the sender has not sent any weather packets the latest 1 day(s).
| Time | Temp. | Humidity | Pressure | Rain* | Wind** | Luminosity | Snow |
|---|---|---|---|---|---|---|---|
| 1777979906 | 20° C | 56% | 1008.4 hPa | 0 mm | 0.45 m/s, 35° | 552 W/m² | - |
| 1777979843 | 20° C | 56% | 1008.4 hPa | 0 mm | 0.45 m/s, 353° | 552 W/m² | - |
| 1777979780 | 20° C | 56% | 1008.3 hPa | 0 mm | 0.45 m/s, 5° | 512 W/m² | - |
| 1777979728 | 20° C | 56% | 1008.4 hPa | 0 mm | 0.45 m/s, 5° | 475 W/m² | - |
| 1777979667 | 20° C | 57% | 1008.4 hPa | 0 mm | 0.45 m/s, 4° | 700 W/m² | - |
| 1777979605 | 20° C | 58% | 1008.5 hPa | 0 mm | 0.89 m/s, 12° | 700 W/m² | - |
| 1777979539 | 19.44° C | 58% | 1008.4 hPa | 0 mm | 0.89 m/s, 55° | 610 W/m² | - |
| 1777979483 | 19.44° C | 58% | 1008.4 hPa | 0 mm | 0.89 m/s, 55° | 599 W/m² | - |
| 1777979420 | 19.44° C | 59% | 1008.3 hPa | 0 mm | 0.89 m/s, 18° | 315 W/m² | - |
| 1777979361 | 19.44° C | 58% | 1008.4 hPa | 0 mm | 0.89 m/s, 32° | 274 W/m² | - |
| 1777979301 | 19.44° C | 59% | 1008.3 hPa | 0 mm | 0.89 m/s, 32° | 255 W/m² | - |
| 1777979241 | 19.44° C | 58% | 1008.4 hPa | 0 mm | 0.89 m/s, 32° | 246 W/m² | - |
| 1777979187 | 19.44° C | 58% | 1008.4 hPa | 0 mm | 0.89 m/s, 33° | 239 W/m² | - |
| 1777979128 | 19.44° C | 58% | 1008.4 hPa | 0 mm | 0.89 m/s, 33° | 232 W/m² | - |
| 1777979054 | 19.44° C | 59% | 1008.3 hPa | 0 mm | 1.34 m/s, 33° | 229 W/m² | - |
| 1777978998 | 19.44° C | 58% | 1008.4 hPa | 0 mm | 1.34 m/s, 29° | 227 W/m² | - |
| 1777978934 | 19.44° C | 59% | 1008.4 hPa | 0 mm | 1.34 m/s, 30° | 225 W/m² | - |
| 1777978898 | 19.44° C | 58% | 1008.4 hPa | 0 mm | 0.89 m/s, 34° | 234 W/m² | - |
| 1777978854 | 19.44° C | 59% | 1008.4 hPa | 0 mm | 0.89 m/s, 69° | 251 W/m² | - |
| 1777978793 | 19.44° C | 60% | 1008.4 hPa | 0 mm | 0.89 m/s, 83° | 253 W/m² | - |
| 1777978733 | 19.44° C | 59% | 1008.4 hPa | 0 mm | 0.89 m/s, 19° | 262 W/m² | - |
| 1777978693 | 19.44° C | 58% | 1008.4 hPa | 0 mm | 1.34 m/s, 338° | 262 W/m² | - |
| 1777978652 | 19.44° C | 59% | 1008.4 hPa | 0 mm | 1.34 m/s, 333° | 258 W/m² | - |
| 1777978611 | 19.44° C | 58% | 1008.4 hPa | 0 mm | 1.34 m/s, 324° | 234 W/m² | - |
| 1777978567 | 20° C | 57% | 1008.4 hPa | 0 mm | 1.34 m/s, 332° | 220 W/m² | - |
* Rain latest hour (hover to see other rain measurements)
** Current wind speed in m/s (hover to see current wind gust speed)